Year,Month,Day,Hour,Minute,Value (Times are PST for temperature in C)
2009,07,27,00,00,18.20
2009,07,27,00,01,18.20
2009,07,27,00,02,18.20
2009,07,27,00,03,18.20
2009,07,27,00,04,18.20
2009,07,27,00,05,18.20
2009,07,27,00,06,18.10
2009,07,27,00,07,18.10
2009,07,27,00,08,18.10
2009,07,27,00,09,18.10
2009,07,27,00,10,18.10
2009,07,27,00,11,18.10
2009,07,27,00,12,18.10
2009,07,27,00,13,18.10
2009,07,27,00,14,18.10
2009,07,27,00,15,18.10
2009,07,27,00,16,18.10
2009,07,27,00,17,18.00
2009,07,27,00,18,18.00
2009,07,27,00,19,18.00
2009,07,27,00,20,18.00
2009,07,27,00,21,18.00
2009,07,27,00,22,18.00
2009,07,27,00,23,18.00
2009,07,27,00,24,18.00
2009,07,27,00,25,18.00
2009,07,27,00,26,18.00
2009,07,27,00,27,17.90
2009,07,27,00,28,17.90
2009,07,27,00,29,17.90
2009,07,27,00,30,17.90
2009,07,27,00,31,17.90
2009,07,27,00,32,17.90
2009,07,27,00,33,17.90
2009,07,27,00,34,17.90
2009,07,27,00,35,17.90
2009,07,27,00,36,17.90
2009,07,27,00,37,17.90
2009,07,27,00,38,17.90
2009,07,27,00,39,17.90
2009,07,27,00,40,17.80
2009,07,27,00,41,17.80
2009,07,27,00,42,17.80
2009,07,27,00,43,17.80
2009,07,27,00,44,17.80
2009,07,27,00,45,17.80
2009,07,27,00,46,17.80
2009,07,27,00,47,17.70
2009,07,27,00,48,17.70
2009,07,27,00,49,17.70
2009,07,27,00,50,17.70
2009,07,27,00,51,17.70
2009,07,27,00,52,17.70
2009,07,27,00,53,17.70
2009,07,27,00,54,17.70
2009,07,27,00,55,17.70
2009,07,27,00,56,17.60
2009,07,27,00,57,17.60
2009,07,27,00,58,17.60
2009,07,27,00,59,17.60
2009,07,27,01,00,17.50
2009,07,27,01,01,17.50
2009,07,27,01,02,17.40
2009,07,27,01,03,17.40
2009,07,27,01,04,17.30
2009,07,27,01,05,17.30
2009,07,27,01,06,17.30
2009,07,27,01,07,17.20
2009,07,27,01,08,17.20
2009,07,27,01,09,17.20
2009,07,27,01,10,17.10
2009,07,27,01,11,17.10
2009,07,27,01,12,17.10
2009,07,27,01,13,17.00
2009,07,27,01,14,17.00
2009,07,27,01,15,16.90
2009,07,27,01,16,16.90
2009,07,27,01,17,16.90
2009,07,27,01,18,16.90
2009,07,27,01,19,16.90
2009,07,27,01,20,16.90
2009,07,27,01,21,16.80
2009,07,27,01,22,16.80
2009,07,27,01,23,16.80
2009,07,27,01,24,16.80
2009,07,27,01,25,16.80
2009,07,27,01,26,16.80
2009,07,27,01,27,16.70
2009,07,27,01,28,16.70
2009,07,27,01,29,16.70
2009,07,27,01,30,16.70
2009,07,27,01,31,16.70
2009,07,27,01,32,16.60
2009,07,27,01,33,16.60
2009,07,27,01,34,16.60
2009,07,27,01,35,16.60
2009,07,27,01,36,16.60
2009,07,27,01,37,16.60
2009,07,27,01,38,16.50
2009,07,27,01,39,16.50
2009,07,27,01,40,16.50
2009,07,27,01,41,16.50
2009,07,27,01,42,16.50
2009,07,27,01,43,16.50
2009,07,27,01,44,16.40
2009,07,27,01,45,16.40
2009,07,27,01,46,16.40
2009,07,27,01,47,16.40
2009,07,27,01,48,16.40
2009,07,27,01,49,16.40
2009,07,27,01,50,16.40
2009,07,27,01,51,16.40
2009,07,27,01,52,16.40
2009,07,27,01,53,16.40
2009,07,27,01,54,16.40
2009,07,27,01,55,16.40
2009,07,27,01,56,16.40
2009,07,27,01,57,16.30
2009,07,27,01,58,16.30
2009,07,27,01,59,16.30
2009,07,27,02,00,16.30
2009,07,27,02,01,16.30
2009,07,27,02,02,16.20
2009,07,27,02,03,16.20
2009,07,27,02,04,16.20
2009,07,27,02,05,16.10
2009,07,27,02,06,16.10
2009,07,27,02,07,16.10
2009,07,27,02,08,16.00
2009,07,27,02,09,16.00
2009,07,27,02,10,15.90
2009,07,27,02,11,15.90
2009,07,27,02,12,15.90
2009,07,27,02,13,15.90
2009,07,27,02,14,15.90
2009,07,27,02,15,15.90
2009,07,27,02,16,15.80
2009,07,27,02,17,15.80
2009,07,27,02,18,15.80
2009,07,27,02,19,15.80
2009,07,27,02,20,15.80
2009,07,27,02,21,15.80
2009,07,27,02,22,15.80
2009,07,27,02,23,15.80
2009,07,27,02,24,15.80
2009,07,27,02,25,15.80
2009,07,27,02,26,15.80
2009,07,27,02,27,15.80
2009,07,27,02,28,15.80
2009,07,27,02,29,15.80
2009,07,27,02,30,15.80
2009,07,27,02,31,15.80
2009,07,27,02,32,15.80
2009,07,27,02,33,15.80
2009,07,27,02,34,15.80
2009,07,27,02,35,15.80
2009,07,27,02,36,15.80
2009,07,27,02,37,15.80
2009,07,27,02,38,15.90
2009,07,27,02,39,15.90
2009,07,27,02,40,15.90
2009,07,27,02,41,15.90
2009,07,27,02,42,15.90
2009,07,27,02,43,15.90
2009,07,27,02,44,15.90
2009,07,27,02,45,15.90
2009,07,27,02,46,15.90
2009,07,27,02,47,16.00
2009,07,27,02,48,16.00
2009,07,27,02,49,16.10
2009,07,27,02,50,16.10
2009,07,27,02,51,16.10
2009,07,27,02,52,16.10
2009,07,27,02,53,16.10
2009,07,27,02,54,16.10
2009,07,27,02,55,16.10
2009,07,27,02,56,16.10
2009,07,27,02,57,16.10
2009,07,27,02,58,16.10
2009,07,27,02,59,16.10
2009,07,27,03,00,16.10
2009,07,27,03,01,16.10
2009,07,27,03,02,16.10
2009,07,27,03,03,16.20
2009,07,27,03,04,16.10
2009,07,27,03,05,16.20
2009,07,27,03,06,16.20
2009,07,27,03,07,16.10
2009,07,27,03,08,16.20
2009,07,27,03,09,16.20
2009,07,27,03,10,16.20
2009,07,27,03,11,16.20
2009,07,27,03,12,16.20
2009,07,27,03,13,16.20
2009,07,27,03,14,16.10
2009,07,27,03,15,16.10
2009,07,27,03,16,16.10
2009,07,27,03,17,16.10
2009,07,27,03,18,16.10
2009,07,27,03,19,16.10
2009,07,27,03,20,16.10
2009,07,27,03,21,16.00
2009,07,27,03,22,16.00
2009,07,27,03,23,16.00
2009,07,27,03,24,15.90
2009,07,27,03,25,15.90
2009,07,27,03,26,15.90
2009,07,27,03,27,15.90
2009,07,27,03,28,15.80
2009,07,27,03,29,15.80
2009,07,27,03,30,15.80
2009,07,27,03,31,15.80
2009,07,27,03,32,15.80
2009,07,27,03,33,15.80
2009,07,27,03,34,15.70
2009,07,27,03,35,15.70
2009,07,27,03,36,15.70
2009,07,27,03,37,15.70
2009,07,27,03,38,15.70
2009,07,27,03,39,15.70
2009,07,27,03,40,15.70
2009,07,27,03,41,15.60
2009,07,27,03,42,15.60
2009,07,27,03,43,15.60
2009,07,27,03,44,15.60
2009,07,27,03,45,15.60
2009,07,27,03,46,15.60
2009,07,27,03,47,15.60
2009,07,27,03,48,15.60
2009,07,27,03,49,15.60
2009,07,27,03,50,15.60
2009,07,27,03,51,15.60
2009,07,27,03,52,15.60
2009,07,27,03,53,15.60
2009,07,27,03,54,15.60
2009,07,27,03,55,15.70
2009,07,27,03,56,15.70
2009,07,27,03,57,15.60
2009,07,27,03,58,15.60
2009,07,27,03,59,15.70
2009,07,27,04,00,15.70
2009,07,27,04,01,15.70
2009,07,27,04,02,15.70
2009,07,27,04,03,15.70
2009,07,27,04,04,15.70
2009,07,27,04,05,15.70
2009,07,27,04,06,15.70
2009,07,27,04,07,15.70
2009,07,27,04,08,15.70
2009,07,27,04,09,15.70
2009,07,27,04,10,15.70
2009,07,27,04,11,15.70
2009,07,27,04,12,15.80
2009,07,27,04,13,15.80
2009,07,27,04,14,15.80
2009,07,27,04,15,15.80
2009,07,27,04,16,15.90
2009,07,27,04,17,15.90
2009,07,27,04,18,16.00
2009,07,27,04,19,16.00
2009,07,27,04,20,16.00
2009,07,27,04,21,16.00
2009,07,27,04,22,16.00
2009,07,27,04,23,16.00
2009,07,27,04,24,16.10
2009,07,27,04,25,16.10
2009,07,27,04,26,16.20
2009,07,27,04,27,16.20
2009,07,27,04,28,16.20
2009,07,27,04,29,16.20
2009,07,27,04,30,16.20
2009,07,27,04,31,16.20
2009,07,27,04,32,16.10
2009,07,27,04,33,16.10
2009,07,27,04,34,16.20
2009,07,27,04,35,16.20
2009,07,27,04,36,16.20
2009,07,27,04,37,16.20
2009,07,27,04,38,16.20
2009,07,27,04,39,16.20
2009,07,27,04,40,16.20
2009,07,27,04,41,16.20
2009,07,27,04,42,16.20
2009,07,27,04,43,16.20
2009,07,27,04,44,16.20
2009,07,27,04,45,16.20
2009,07,27,04,46,16.20
2009,07,27,04,47,16.10
2009,07,27,04,48,16.10
2009,07,27,04,49,16.10
2009,07,27,04,50,16.10
2009,07,27,04,51,16.10
2009,07,27,04,52,16.10
2009,07,27,04,53,16.10
2009,07,27,04,54,16.10
2009,07,27,04,55,16.10
2009,07,27,04,56,16.10
2009,07,27,04,57,16.10
2009,07,27,04,58,16.10
2009,07,27,04,59,16.10
2009,07,27,05,00,16.10
2009,07,27,05,01,16.10
2009,07,27,05,02,16.10
2009,07,27,05,03,16.10
2009,07,27,05,04,16.10
2009,07,27,05,05,16.20
2009,07,27,05,06,16.20
2009,07,27,05,07,16.20
2009,07,27,05,08,16.20
2009,07,27,05,09,16.20
2009,07,27,05,10,16.20
2009,07,27,05,11,16.20
2009,07,27,05,12,16.20
2009,07,27,05,13,16.30
2009,07,27,05,14,16.20
2009,07,27,05,15,16.20
2009,07,27,05,16,16.20
2009,07,27,05,17,16.20
2009,07,27,05,18,16.20
2009,07,27,05,19,16.30
2009,07,27,05,20,16.30
2009,07,27,05,21,16.40
2009,07,27,05,22,16.40
2009,07,27,05,23,16.40
2009,07,27,05,24,16.40
2009,07,27,05,25,16.40
2009,07,27,05,26,16.40
2009,07,27,05,27,16.40
2009,07,27,05,28,16.40
2009,07,27,05,29,16.40
2009,07,27,05,30,16.40
2009,07,27,05,31,16.40
2009,07,27,05,32,16.40
2009,07,27,05,33,16.40
2009,07,27,05,34,16.40
2009,07,27,05,35,16.40
2009,07,27,05,36,16.30
2009,07,27,05,37,16.30
2009,07,27,05,38,16.30
2009,07,27,05,39,16.20
2009,07,27,05,40,16.20
2009,07,27,05,41,16.10
2009,07,27,05,42,16.00
2009,07,27,05,43,16.00
2009,07,27,05,44,15.90
2009,07,27,05,45,15.90
2009,07,27,05,46,15.80
2009,07,27,05,47,15.80
2009,07,27,05,48,15.80
2009,07,27,05,49,15.70
2009,07,27,05,50,15.70
2009,07,27,05,51,15.70
2009,07,27,05,52,15.70
2009,07,27,05,53,15.70
2009,07,27,05,54,15.80
2009,07,27,05,55,15.80
2009,07,27,05,56,15.80
2009,07,27,05,57,15.90
2009,07,27,05,58,15.90
2009,07,27,05,59,15.90
2009,07,27,06,00,16.00
2009,07,27,06,01,16.00
2009,07,27,06,02,16.00
2009,07,27,06,03,16.00
2009,07,27,06,04,16.10
2009,07,27,06,05,16.10
2009,07,27,06,06,16.10
2009,07,27,06,07,16.10
2009,07,27,06,08,16.20
2009,07,27,06,09,16.20
2009,07,27,06,10,16.20
2009,07,27,06,11,16.20
2009,07,27,06,12,16.20
2009,07,27,06,13,16.30
2009,07,27,06,14,16.30
2009,07,27,06,15,16.30
2009,07,27,06,16,16.30
2009,07,27,06,17,16.30
2009,07,27,06,18,16.40
2009,07,27,06,19,16.40
2009,07,27,06,20,16.40
2009,07,27,06,21,16.40
2009,07,27,06,22,16.40
2009,07,27,06,23,16.50
2009,07,27,06,24,16.50
2009,07,27,06,25,16.60
2009,07,27,06,26,16.60
2009,07,27,06,27,16.60
2009,07,27,06,28,16.60
2009,07,27,06,29,16.60
2009,07,27,06,30,16.60
2009,07,27,06,31,16.60
2009,07,27,06,32,16.60
2009,07,27,06,33,16.60
2009,07,27,06,34,16.60
2009,07,27,06,35,16.60
2009,07,27,06,36,16.60
2009,07,27,06,37,16.60
2009,07,27,06,38,16.60
2009,07,27,06,39,16.60
2009,07,27,06,40,16.60
2009,07,27,06,41,16.70
2009,07,27,06,42,16.70
2009,07,27,06,43,16.70
2009,07,27,06,44,16.70
2009,07,27,06,45,16.70
2009,07,27,06,46,16.70
2009,07,27,06,47,16.80
2009,07,27,06,48,16.80
2009,07,27,06,49,16.80
2009,07,27,06,50,16.80
2009,07,27,06,51,16.80
2009,07,27,06,52,16.80
2009,07,27,06,53,16.80
2009,07,27,06,54,16.90
2009,07,27,06,55,16.90
2009,07,27,06,56,16.90
2009,07,27,06,57,16.90
2009,07,27,06,58,16.90
2009,07,27,06,59,16.90
2009,07,27,07,00,16.90
2009,07,27,07,01,16.90
2009,07,27,07,02,17.00
2009,07,27,07,03,17.00
2009,07,27,07,04,17.00
2009,07,27,07,05,17.00
2009,07,27,07,06,17.00
2009,07,27,07,07,17.00
2009,07,27,07,08,17.10
2009,07,27,07,09,17.10
2009,07,27,07,10,17.10
2009,07,27,07,11,17.10
2009,07,27,07,12,17.20
2009,07,27,07,13,17.20
2009,07,27,07,14,17.20
2009,07,27,07,15,17.20
2009,07,27,07,16,17.20
2009,07,27,07,17,17.30
2009,07,27,07,18,17.30
2009,07,27,07,19,17.30
2009,07,27,07,20,17.30
2009,07,27,07,21,17.30
2009,07,27,07,22,17.40
2009,07,27,07,23,17.40
2009,07,27,07,24,17.40
2009,07,27,07,25,17.50
2009,07,27,07,26,17.50
2009,07,27,07,27,17.60
2009,07,27,07,28,17.60
2009,07,27,07,29,17.60
2009,07,27,07,30,17.70
2009,07,27,07,31,17.70
2009,07,27,07,32,17.70
2009,07,27,07,33,17.80
2009,07,27,07,34,17.80
2009,07,27,07,35,17.90
2009,07,27,07,36,17.90
2009,07,27,07,37,18.00
2009,07,27,07,38,18.00
2009,07,27,07,39,18.00
2009,07,27,07,40,18.10
2009,07,27,07,41,18.10
2009,07,27,07,42,18.20
2009,07,27,07,43,18.20
2009,07,27,07,44,18.20
2009,07,27,07,45,18.20
2009,07,27,07,46,18.30
2009,07,27,07,47,18.30
2009,07,27,07,48,18.30
2009,07,27,07,49,18.30
2009,07,27,07,50,18.30
2009,07,27,07,51,18.30
2009,07,27,07,52,18.30
2009,07,27,07,53,18.30
2009,07,27,07,54,18.30
2009,07,27,07,55,18.30
2009,07,27,07,56,18.30
2009,07,27,07,57,18.20
2009,07,27,07,58,18.20
2009,07,27,07,59,18.20
2009,07,27,08,00,18.20
2009,07,27,08,01,18.30
2009,07,27,08,02,18.30
2009,07,27,08,03,18.30
2009,07,27,08,04,18.30
2009,07,27,08,05,18.40
2009,07,27,08,06,18.40
2009,07,27,08,07,18.40
2009,07,27,08,08,18.50
2009,07,27,08,09,18.60
2009,07,27,08,10,18.60
2009,07,27,08,11,18.70
2009,07,27,08,12,18.80
2009,07,27,08,13,18.80
2009,07,27,08,14,18.90
2009,07,27,08,15,19.00
2009,07,27,08,16,19.00
2009,07,27,08,17,19.10
2009,07,27,08,18,19.20
2009,07,27,08,19,19.30
2009,07,27,08,20,19.40
2009,07,27,08,21,19.50
2009,07,27,08,22,19.60
2009,07,27,08,23,19.80
2009,07,27,08,24,20.00
2009,07,27,08,25,20.20
2009,07,27,08,26,20.30
2009,07,27,08,27,20.50
2009,07,27,08,28,20.60
2009,07,27,08,29,20.70
2009,07,27,08,30,20.80
2009,07,27,08,31,20.80
2009,07,27,08,32,20.90
2009,07,27,08,33,21.00
2009,07,27,08,34,21.10
2009,07,27,08,35,21.20
2009,07,27,08,36,21.30
2009,07,27,08,37,21.30
2009,07,27,08,38,21.40
2009,07,27,08,39,21.50
2009,07,27,08,40,21.60
2009,07,27,08,41,21.60
2009,07,27,08,42,21.70
2009,07,27,08,43,21.70
2009,07,27,08,44,21.80
2009,07,27,08,45,21.80
2009,07,27,08,46,21.80
2009,07,27,08,47,21.90
2009,07,27,08,48,21.90
2009,07,27,08,49,22.00
2009,07,27,08,50,22.00
2009,07,27,08,51,22.10
2009,07,27,08,52,22.10
2009,07,27,08,53,22.20
2009,07,27,08,54,22.20
2009,07,27,08,55,22.30
2009,07,27,08,56,22.30
2009,07,27,08,57,22.30
2009,07,27,08,58,22.30
2009,07,27,08,59,22.40
2009,07,27,09,00,22.40
2009,07,27,09,01,22.40
2009,07,27,09,02,22.50
2009,07,27,09,03,22.50
2009,07,27,09,04,22.60
2009,07,27,09,05,22.70
2009,07,27,09,06,22.70
2009,07,27,09,07,22.80
2009,07,27,09,08,22.80
2009,07,27,09,09,22.80
2009,07,27,09,10,22.90
2009,07,27,09,11,22.90
2009,07,27,09,12,23.00
2009,07,27,09,13,23.00
2009,07,27,09,14,23.10
2009,07,27,09,15,23.10
2009,07,27,09,16,23.20
2009,07,27,09,17,23.30
2009,07,27,09,18,23.40
2009,07,27,09,19,23.40
2009,07,27,09,20,23.50
2009,07,27,09,21,23.60
2009,07,27,09,22,23.60
2009,07,27,09,23,23.70
2009,07,27,09,24,23.70
2009,07,27,09,25,23.70
2009,07,27,09,26,23.80
2009,07,27,09,27,23.80
2009,07,27,09,28,23.80
2009,07,27,09,29,23.80
2009,07,27,09,30,23.80
2009,07,27,09,31,23.80
2009,07,27,09,32,23.90
2009,07,27,09,33,23.90
2009,07,27,09,34,23.90
2009,07,27,09,35,23.80
2009,07,27,09,36,23.90
2009,07,27,09,37,23.90
2009,07,27,09,38,23.90
2009,07,27,09,39,24.00
2009,07,27,09,40,24.10
2009,07,27,09,41,24.10
2009,07,27,09,42,24.20
2009,07,27,09,43,24.30
2009,07,27,09,44,24.30
2009,07,27,09,45,24.40
2009,07,27,09,46,24.40
2009,07,27,09,47,24.50
2009,07,27,09,48,24.50
2009,07,27,09,49,24.60
2009,07,27,09,50,24.70
2009,07,27,09,51,24.70
2009,07,27,09,52,24.80
2009,07,27,09,53,24.80
2009,07,27,09,54,24.80
2009,07,27,09,55,24.80
2009,07,27,09,56,24.70
2009,07,27,09,57,24.70
2009,07,27,09,58,24.70
2009,07,27,09,59,24.70
2009,07,27,10,00,24.70
2009,07,27,10,01,24.70
2009,07,27,10,02,24.60
2009,07,27,10,03,24.60
2009,07,27,10,04,24.60
2009,07,27,10,05,24.60
2009,07,27,10,06,24.70
2009,07,27,10,07,24.70
2009,07,27,10,08,24.70
2009,07,27,10,09,24.60
2009,07,27,10,10,24.50
2009,07,27,10,11,24.50
2009,07,27,10,12,24.50
2009,07,27,10,13,24.60
2009,07,27,10,14,24.60
2009,07,27,10,15,24.60
2009,07,27,10,16,24.70
2009,07,27,10,17,24.80
2009,07,27,10,18,24.80
2009,07,27,10,19,24.90
2009,07,27,10,20,24.90
2009,07,27,10,21,24.90
2009,07,27,10,22,24.90
2009,07,27,10,23,24.90
2009,07,27,10,24,24.90
2009,07,27,10,25,24.90
2009,07,27,10,26,24.80
2009,07,27,10,27,24.80
2009,07,27,10,28,24.70
2009,07,27,10,29,24.60
2009,07,27,10,30,24.50
2009,07,27,10,31,24.40
2009,07,27,10,32,24.40
2009,07,27,10,33,24.30
2009,07,27,10,34,24.20
2009,07,27,10,35,24.30
2009,07,27,10,36,24.30
2009,07,27,10,37,24.40
2009,07,27,10,38,24.40
2009,07,27,10,39,24.50
2009,07,27,10,40,24.60
2009,07,27,10,41,24.80
2009,07,27,10,42,24.80
2009,07,27,10,43,24.80
2009,07,27,10,44,24.80
2009,07,27,10,45,24.80
2009,07,27,10,46,24.80
2009,07,27,10,47,24.80
2009,07,27,10,48,24.80
2009,07,27,10,49,24.80
2009,07,27,10,50,24.80
2009,07,27,10,51,24.80
2009,07,27,10,52,24.80
2009,07,27,10,53,24.90
2009,07,27,10,54,25.00
2009,07,27,10,55,25.10
2009,07,27,10,56,25.10
2009,07,27,10,57,25.10
2009,07,27,10,58,25.20
2009,07,27,10,59,25.30
2009,07,27,11,00,25.30
2009,07,27,11,01,25.30
2009,07,27,11,02,25.30
2009,07,27,11,03,25.20
2009,07,27,11,04,25.20
2009,07,27,11,05,25.10
2009,07,27,11,06,24.90
2009,07,27,11,07,24.70
2009,07,27,11,08,24.60
2009,07,27,11,09,24.50
2009,07,27,11,10,24.50
2009,07,27,11,11,24.50
2009,07,27,11,12,24.60
2009,07,27,11,13,24.60
2009,07,27,11,14,24.60
2009,07,27,11,15,24.60
2009,07,27,11,16,24.50
2009,07,27,11,17,24.50
2009,07,27,11,18,24.50
2009,07,27,11,19,24.60
2009,07,27,11,20,24.60
2009,07,27,11,21,24.60
2009,07,27,11,22,24.60
2009,07,27,11,23,24.70
2009,07,27,11,24,24.70
2009,07,27,11,25,24.70
2009,07,27,11,26,24.70
2009,07,27,11,27,24.70
2009,07,27,11,28,24.70
2009,07,27,11,29,24.80
2009,07,27,11,30,24.80
2009,07,27,11,31,24.80
2009,07,27,11,32,24.90
2009,07,27,11,33,24.90
2009,07,27,11,34,24.90
2009,07,27,11,35,24.90
2009,07,27,11,36,25.00
2009,07,27,11,37,24.90
2009,07,27,11,38,24.90
2009,07,27,11,39,24.80
2009,07,27,11,40,24.80
2009,07,27,11,41,24.80
2009,07,27,11,42,24.70
2009,07,27,11,43,24.70
2009,07,27,11,44,24.70
2009,07,27,11,45,24.70
2009,07,27,11,46,24.80
2009,07,27,11,47,24.90
2009,07,27,11,48,24.90
2009,07,27,11,49,25.00
2009,07,27,11,50,25.10
2009,07,27,11,51,25.20
2009,07,27,11,52,25.30
2009,07,27,11,53,25.40
2009,07,27,11,54,25.50
2009,07,27,11,55,25.60
2009,07,27,11,56,25.50
2009,07,27,11,57,25.40
2009,07,27,11,58,25.30
2009,07,27,11,59,25.30
2009,07,27,12,00,25.30
2009,07,27,12,01,25.30
2009,07,27,12,02,25.30
2009,07,27,12,03,25.30
2009,07,27,12,04,25.40
2009,07,27,12,05,25.40
2009,07,27,12,06,25.40
2009,07,27,12,07,25.50
2009,07,27,12,08,25.60
2009,07,27,12,09,25.70
2009,07,27,12,10,25.70
2009,07,27,12,11,25.70
2009,07,27,12,12,25.60
2009,07,27,12,13,25.70
2009,07,27,12,14,25.70
2009,07,27,12,15,25.80
2009,07,27,12,16,25.90
2009,07,27,12,17,25.90
2009,07,27,12,18,26.00
2009,07,27,12,19,26.00
2009,07,27,12,20,26.10
2009,07,27,12,21,26.00
2009,07,27,12,22,26.00
2009,07,27,12,23,26.00
2009,07,27,12,24,26.00
2009,07,27,12,25,26.10
2009,07,27,12,26,26.20
2009,07,27,12,27,26.30
2009,07,27,12,28,26.30
2009,07,27,12,29,26.30
2009,07,27,12,30,26.40
2009,07,27,12,31,26.50
2009,07,27,12,32,26.60
2009,07,27,12,33,26.60
2009,07,27,12,34,26.70
2009,07,27,12,35,26.70
2009,07,27,12,36,26.60
2009,07,27,12,37,26.50
2009,07,27,12,38,26.40
2009,07,27,12,39,26.40
2009,07,27,12,40,26.30
2009,07,27,12,41,26.20
2009,07,27,12,42,26.10
2009,07,27,12,43,26.00
2009,07,27,12,44,26.00
2009,07,27,12,45,25.90
2009,07,27,12,46,25.80
2009,07,27,12,47,25.70
2009,07,27,12,48,25.70
2009,07,27,12,49,25.70
2009,07,27,12,50,25.80
2009,07,27,12,51,25.90
2009,07,27,12,52,25.90
2009,07,27,12,53,25.80
2009,07,27,12,54,25.90
2009,07,27,12,55,25.90
2009,07,27,12,56,25.90
2009,07,27,12,57,25.90
2009,07,27,12,58,26.00
2009,07,27,12,59,26.10
2009,07,27,13,00,26.10
2009,07,27,13,01,26.00
2009,07,27,13,02,25.90
2009,07,27,13,03,25.80
2009,07,27,13,04,25.70
2009,07,27,13,05,25.70
2009,07,27,13,06,25.80
2009,07,27,13,07,25.80
2009,07,27,13,08,25.90
2009,07,27,13,09,25.90
2009,07,27,13,10,26.10
2009,07,27,13,11,26.30
2009,07,27,13,12,26.30
2009,07,27,13,13,26.30
2009,07,27,13,14,26.30
2009,07,27,13,15,26.30
2009,07,27,13,16,26.20
2009,07,27,13,17,26.10
2009,07,27,13,18,26.00
2009,07,27,13,19,26.10
2009,07,27,13,20,26.10
2009,07,27,13,21,26.20
2009,07,27,13,22,26.30
2009,07,27,13,23,26.30
2009,07,27,13,24,26.30
2009,07,27,13,25,26.30
2009,07,27,13,26,26.40
2009,07,27,13,27,26.40
2009,07,27,13,28,26.50
2009,07,27,13,29,26.60
2009,07,27,13,30,26.60
2009,07,27,13,31,26.60
2009,07,27,13,32,26.70
2009,07,27,13,33,26.60
2009,07,27,13,34,26.60
2009,07,27,13,35,26.60
2009,07,27,13,36,26.60
2009,07,27,13,37,26.70
2009,07,27,13,38,26.70
2009,07,27,13,39,26.70
2009,07,27,13,40,26.70
2009,07,27,13,41,26.80
2009,07,27,13,42,26.80
2009,07,27,13,43,26.90
2009,07,27,13,44,27.00
2009,07,27,13,45,27.10
2009,07,27,13,46,27.10
2009,07,27,13,47,27.10
2009,07,27,13,48,27.20
2009,07,27,13,49,27.30
2009,07,27,13,50,27.40
2009,07,27,13,51,27.50
2009,07,27,13,52,27.60
2009,07,27,13,53,27.70
2009,07,27,13,54,27.70
2009,07,27,13,55,27.60
2009,07,27,13,56,27.60
2009,07,27,13,57,27.60
2009,07,27,13,58,27.60
2009,07,27,13,59,27.70
2009,07,27,14,00,27.80
2009,07,27,14,01,27.90
2009,07,27,14,02,27.90
2009,07,27,14,03,28.00
2009,07,27,14,04,28.00
2009,07,27,14,05,28.00
2009,07,27,14,06,27.90
2009,07,27,14,07,27.80
2009,07,27,14,08,27.80
2009,07,27,14,09,27.70
2009,07,27,14,10,27.60
2009,07,27,14,11,27.60
2009,07,27,14,12,27.60
2009,07,27,14,13,27.60
2009,07,27,14,14,27.60
2009,07,27,14,15,27.70
2009,07,27,14,16,27.70
2009,07,27,14,17,27.70
2009,07,27,14,18,27.70
2009,07,27,14,19,27.60
2009,07,27,14,20,27.70
2009,07,27,14,21,27.70
2009,07,27,14,22,27.80
2009,07,27,14,23,28.00
2009,07,27,14,24,28.00
2009,07,27,14,25,28.10
2009,07,27,14,26,28.20
2009,07,27,14,27,28.20
2009,07,27,14,28,28.20
2009,07,27,14,29,28.20
2009,07,27,14,30,28.10
2009,07,27,14,31,28.10
2009,07,27,14,32,28.00
2009,07,27,14,33,28.00
2009,07,27,14,34,28.00
2009,07,27,14,35,28.10
2009,07,27,14,36,28.10
2009,07,27,14,37,28.10
2009,07,27,14,38,28.10
2009,07,27,14,39,28.20
2009,07,27,14,40,28.20
2009,07,27,14,41,28.30
2009,07,27,14,42,28.30
2009,07,27,14,43,28.40
2009,07,27,14,44,28.40
2009,07,27,14,45,28.50
2009,07,27,14,46,28.60
2009,07,27,14,47,28.60
2009,07,27,14,48,28.60
2009,07,27,14,49,28.60
2009,07,27,14,50,28.50
2009,07,27,14,51,28.40
2009,07,27,14,52,28.40
2009,07,27,14,53,28.30
2009,07,27,14,54,28.30
2009,07,27,14,55,28.20
2009,07,27,14,56,28.20
2009,07,27,14,57,28.20
2009,07,27,14,58,28.10
2009,07,27,14,59,28.20
2009,07,27,15,00,28.20
2009,07,27,15,01,28.30
2009,07,27,15,02,28.40
2009,07,27,15,03,28.50
2009,07,27,15,04,28.60
2009,07,27,15,05,28.70
2009,07,27,15,06,28.70
2009,07,27,15,07,28.70
2009,07,27,15,08,28.70
2009,07,27,15,09,28.70
2009,07,27,15,10,28.70
2009,07,27,15,11,28.70
2009,07,27,15,12,28.70
2009,07,27,15,13,28.70
2009,07,27,15,14,28.80
2009,07,27,15,15,28.90
2009,07,27,15,16,29.00
2009,07,27,15,17,29.10
2009,07,27,15,18,29.10
2009,07,27,15,19,29.20
2009,07,27,15,20,29.20
2009,07,27,15,21,29.30
2009,07,27,15,22,29.30
2009,07,27,15,23,29.40
2009,07,27,15,24,29.40
2009,07,27,15,25,29.40
2009,07,27,15,26,29.40
2009,07,27,15,27,29.50
2009,07,27,15,28,29.50
2009,07,27,15,29,29.50
2009,07,27,15,30,29.50
2009,07,27,15,31,29.50
2009,07,27,15,32,29.50
2009,07,27,15,33,29.60
2009,07,27,15,34,29.60
2009,07,27,15,35,29.60
2009,07,27,15,36,29.60
2009,07,27,15,37,29.60
2009,07,27,15,38,29.60
2009,07,27,15,39,29.60
2009,07,27,15,40,29.60
2009,07,27,15,41,29.60
2009,07,27,15,42,29.70
2009,07,27,15,43,29.70
2009,07,27,15,44,29.60
2009,07,27,15,45,29.60
2009,07,27,15,46,29.50
2009,07,27,15,47,29.40
2009,07,27,15,48,29.30
2009,07,27,15,49,29.30
2009,07,27,15,50,29.30
2009,07,27,15,51,29.40
2009,07,27,15,52,29.50
2009,07,27,15,53,29.60
2009,07,27,15,54,29.70
2009,07,27,15,55,29.70
2009,07,27,15,56,29.70
2009,07,27,15,57,29.70
2009,07,27,15,58,29.70
2009,07,27,15,59,29.70
2009,07,27,16,00,29.60
2009,07,27,16,01,29.60
2009,07,27,16,02,29.60
2009,07,27,16,03,29.70
2009,07,27,16,04,29.70
2009,07,27,16,05,29.80
2009,07,27,16,06,29.80
2009,07,27,16,07,29.90
2009,07,27,16,08,30.00
2009,07,27,16,09,30.10
2009,07,27,16,10,30.20
2009,07,27,16,11,30.20
2009,07,27,16,12,30.10
2009,07,27,16,13,30.00
2009,07,27,16,14,29.80
2009,07,27,16,15,29.70
2009,07,27,16,16,29.60
2009,07,27,16,17,29.40
2009,07,27,16,18,29.30
2009,07,27,16,19,29.20
2009,07,27,16,20,29.10
2009,07,27,16,21,29.00
2009,07,27,16,22,29.00
2009,07,27,16,23,28.90
2009,07,27,16,24,28.90
2009,07,27,16,25,28.90
2009,07,27,16,26,28.90
2009,07,27,16,27,28.90
2009,07,27,16,28,28.90
2009,07,27,16,29,29.00
2009,07,27,16,30,29.00
2009,07,27,16,31,29.10
2009,07,27,16,32,29.20
2009,07,27,16,33,29.30
2009,07,27,16,34,29.40
2009,07,27,16,35,29.50
2009,07,27,16,36,29.70
2009,07,27,16,37,29.80
2009,07,27,16,38,29.80
2009,07,27,16,39,29.80
2009,07,27,16,40,29.90
2009,07,27,16,41,29.90
2009,07,27,16,42,29.90
2009,07,27,16,43,29.90
2009,07,27,16,44,29.90
2009,07,27,16,45,29.80
2009,07,27,16,46,29.70
2009,07,27,16,47,29.60
2009,07,27,16,48,29.60
2009,07,27,16,49,29.60
2009,07,27,16,50,29.60
2009,07,27,16,51,29.60
2009,07,27,16,52,29.70
2009,07,27,16,53,29.80
2009,07,27,16,54,29.80
2009,07,27,16,55,29.80
2009,07,27,16,56,29.80
2009,07,27,16,57,29.80
2009,07,27,16,58,29.80
2009,07,27,16,59,29.90
2009,07,27,17,00,29.90
2009,07,27,17,01,29.90
2009,07,27,17,02,29.80
2009,07,27,17,03,29.80
2009,07,27,17,04,29.90
2009,07,27,17,05,29.90
2009,07,27,17,06,30.00
2009,07,27,17,07,30.00
2009,07,27,17,08,30.10
2009,07,27,17,09,30.10
2009,07,27,17,10,30.10
2009,07,27,17,11,30.20
2009,07,27,17,12,30.20
2009,07,27,17,13,30.30
2009,07,27,17,14,30.40
2009,07,27,17,15,30.40
2009,07,27,17,16,30.50
2009,07,27,17,17,30.50
2009,07,27,17,18,30.60
2009,07,27,17,19,30.60